Weather in Kirovskoe

Russia / Republic of Crimea     45°13′45″N   35°12′33″E
temp.,
°C
wind,
m/s
gust,
m/s
humid.,
%
clouds,
%
prec.,
mm/h
press.,
hPa
HPBL,
m
14 august, sun
sun1400:00+24wnw338042 0.0 100794
03:00+23wnw5776100 0.0 1006189
06:00+23w6978100 0.0 1005237
09:00+26wnw456886 0.8 1005382
12:00+30n22515 0.0 10041069
15:00+32ese654575 0.0 10041284
18:00+30se55480 0.0 1004492
21:00+25sse34700 0.0 100478
15 august, mon
mon1500:00+24w34710 0.0 100485
03:00+23wsw23730 0.0 100481
06:00+23w33752 0.0 100484
09:00+28w225310 0.0 1004545
12:00+31ene434499 0.0 10051362
15:00+32e6443100 0.0 10041279
18:00+25w91265100 0.6 1006622
21:00+22wnw61074100 0.9 1006323
16 august, tue
tue1600:00+22w2372100 0.4 1008129
03:00+22nw227170 0.4 1008133
06:00+21wsw21730 0.0 100958
09:00+25sse01580 0.0 1009548
12:00+29e44470 0.0 10091337
15:00+32ene34415 0.0 10081674
18:00+31sw344319 0.0 1009994
21:00+26w58580 0.0 1010196
17 august, wed
wed1700:00+24w35640 0.0 1011125
03:00+23w23683 0.0 101079
06:00+22ssw22713 0.0 101048
09:00+28e22505 0.0 1010673
12:00+30e54435 0.0 10101471
15:00+31ese434332 0.0 10091196
18:00+31se33430 0.0 1009760
21:00+26sw346115 0.1 100961
18 august, thu
thu1800:00+24wnw597013 0.8 1010215
03:00+23wnw467239 0.8 1009146
06:00+22w347412 0.0 1010109
09:00+27nw33535 0.0 1010425
12:00+31nne34405 0.0 10091346
15:00+32ene544132 0.0 10091265
18:00+29n465159 0.0 1009318
21:00+26wnw22605 0.0 100923